Regional Weather Roundup
Issued by NWS Glasgow, MT

Home | Current Version | Previous Version | Text Only | Print | Product List | Glossary On
Versions: 1 2 3 4 5 6 7 8 9 10 11 12 13 14 15 16 17 18 19 20 21 22 23 24 25 26 27 28 29 30 31 32 33 34 35 36 37 38 39 40 41 42 43 44 45 46 47 48 49 50
000
ASUS45 KGGW 011415
RWRGGW
HOURLY REGIONAL WEATHER ROUNDUP FOR NORTHEAST MONTANA
NATIONAL WEATHER SERVICE GLASGOW MONTANA
800 AM MDT SAT AUG 01 2015

NOTE: "FAIR" INDICATES FEW OR NO CLOUDS BELOW 12,000 FEET WITH NO
SIGNIFICANT WEATHER AND/OR OBSTRUCTIONS TO VISISBILITY.

NORTHEAST MONTANA


CITY           SKY/WX    TMP DP  RH WIND       PRES   REMARKS
GLASGOW        SUNNY     65  51  60 SE15      29.92F
PLENTYWOOD       N/A     65  51  60 SE1         N/A
WOLF POINT     SUNNY     64  52  64 CALM      29.95S
JORDAN           N/A     68  46  45 CALM      29.96F
WINNETT          N/A     70  44  39 NW1         N/A
SIDNEY         SUNNY    N/A N/A N/A CALM      29.93F
GLENDIVE       SUNNY     64  52  63 E3        29.97S
MALTA            N/A     62  54  74 NE3         N/A
SCOBEY           N/A     62  49  62 CALM      29.93

FORT PECK REPORTS


CITY           SKY/WX    TMP DP  RH WIND       PRES   REMARKS
FORT PECK        N/A     68  53  58 E3          N/A
THE PINES        N/A     68  56  65 SE2         N/A

SOUTHEAST MONTANA


CITY           SKY/WX    TMP DP  RH WIND       PRES   REMARKS
BILLINGS       MOSUNNY   64  37  36 SW15      30.08S
MILES CITY     SUNNY     69  43  38 W5        29.98S
BAKER          SUNNY     73  50  44 W5        29.99F
LIVINGSTON     SUNNY     56  39  53 NW10      30.16S

CENTRAL MONTANA


CITY           SKY/WX    TMP DP  RH WIND       PRES   REMARKS
HAVRE          SUNNY     68  46  45 SW16      29.94R
LEWISTOWN      SUNNY     70  45  40 CALM      30.08R
GREAT FALLS    SUNNY     70  36  28 SW7       30.04S
CUT BANK       SUNNY     69  35  28 VRB3      30.02S
HELENA         SUNNY     59  41  51 CALM      30.15S
BUTTE          SUNNY     50  34  54 CALM      30.26R
BOZEMAN        SUNNY     57  44  62 S3        30.18S

WESTERN MONTANA


CITY           SKY/WX    TMP DP  RH WIND       PRES   REMARKS
MISSOULA       SUNNY     59  38  45 CALM      30.12R
KALISPELL      NOT AVBL

NORTH DAKOTA


CITY           SKY/WX    TMP DP  RH WIND       PRES   REMARKS
WILLISTON      SUNNY     70  55  59 S3        29.93F
DICKINSON      SUNNY     66  52  60 NW12      29.93R
MINOT          SUNNY     66  52  60 SE5       29.91F
BISMARCK       MOSUNNY   67  59  75 E5        29.90F

SOUTHERN SASKATCHEWAN


CITY           SKY/WX    TMP DP  RH WIND       PRES   REMARKS
REGINA         MOSUNNY   64  54  68 S7        29.90F
ESTEVAN        SUNNY     66  54  63 S6        29.92
SWIFT CURRENT  MOSUNNY   68  54  60 S12G18    29.87F



USA.gov is the U.S. government's official web portal to all federal, state and local government web resources and services.